Tracking 25963 objects as of 12-Aug-2022
HD Live streaming from Space Station
objects crossing your sky now

STARLINK-3523

Track STARLINK-3523 now!
10-day predictions
STARLINK-3523 is classified as:


NORAD ID: 51729
Int'l Code: 2022-016R
Perigee: 545.8 km
Apogee: 548.1 km
Inclination: 53.2 °
Period: 95.4 minutes
Semi major axis: 6917 km
RCS: Unknown
Launch date: February 21, 2022
Source: United States (US)
Launch site: AIR FORCE EASTERN TEST RANGE (AFETR)
aabbcc
Your satellite tracking list
Your tracking list is empty




NASA's NSSDC Master Catalog

Two Line Element Set (TLE):
1 51729U 22016R   22223.91667824  .00023963  00000-0  15195-2 0  9995
2 51729  53.2176  60.9520 0001647  54.4637  65.1004 15.08818671 27571
Source of the keplerian elements: AFSPC